Time,TemperatureF,DewpointF,PressureIn,WindDirection,WindDirectionDegrees,WindSpeedMPH,WindSpeedGustMPH,Humidity,HourlyPrecipIn,Conditions,Clouds,dailyrainin,SoftwareType,DateUTC
2013-01-17 00:05:00,27.0,25.0,29.91,South,182,2.0,-999.0,91,-99.99,,,-99.99,,2013-01-17 05:05:00,
2013-01-17 00:12:00,27.0,25.0,29.91,South,182,2.0,-999.0,91,-99.99,,,-99.99,,2013-01-17 05:12:00,
2013-01-17 00:22:00,27.0,24.0,29.91,South,178,2.0,-999.0,90,-99.99,,,-99.99,,2013-01-17 05:22:00,
2013-01-17 00:33:00,27.0,24.0,29.91,SSW,211,2.0,-999.0,90,-99.99,,,-99.99,,2013-01-17 05:33:00,
2013-01-17 00:42:00,27.0,24.0,29.91,SSW,211,2.0,-999.0,90,-99.99,,,-99.99,,2013-01-17 05:42:00,
2013-01-17 00:52:00,27.0,24.0,29.92,WSW,241,2.0,-999.0,90,-99.99,,,-99.99,,2013-01-17 05:52:00,
2013-01-17 01:03:00,27.0,24.0,29.93,WSW,238,2.0,-999.0,90,-99.99,,,-99.99,,2013-01-17 06:03:00,
2013-01-17 01:12:00,27.0,24.0,29.93,WSW,238,2.0,-999.0,90,-99.99,,,-99.99,,2013-01-17 06:12:00,
2013-01-17 01:22:00,27.0,24.0,29.93,SSW,207,3.0,-999.0,89,-99.99,,,-99.99,,2013-01-17 06:22:00,
2013-01-17 01:33:00,27.0,24.0,29.94,South,183,4.0,-999.0,88,-99.99,,,-99.99,,2013-01-17 06:33:00,
2013-01-17 01:42:00,27.0,24.0,29.94,South,183,4.0,-999.0,88,-99.99,,,-99.99,,2013-01-17 06:42:00,
2013-01-17 01:52:00,27.0,24.0,29.94,WSW,239,3.0,-999.0,88,-99.99,,,-99.99,,2013-01-17 06:52:00,
2013-01-17 02:02:00,27.0,24.0,29.93,SSE,166,4.0,-999.0,88,-99.99,,,-99.99,,2013-01-17 07:02:00,
2013-01-17 02:12:00,27.0,24.0,29.93,SSE,166,4.0,-999.0,88,-99.99,,,-99.99,,2013-01-17 07:12:00,
2013-01-17 02:22:00,27.0,24.0,29.93,SW,236,4.0,-999.0,88,-99.99,,,-99.99,,2013-01-17 07:22:00,
2013-01-17 02:33:00,27.0,24.0,29.94,SSE,165,3.0,-999.0,88,-99.99,,,-99.99,,2013-01-17 07:33:00,
2013-01-17 02:42:00,27.0,24.0,29.94,SSE,165,3.0,-999.0,88,-99.99,,,-99.99,,2013-01-17 07:42:00,
2013-01-17 02:52:00,27.0,24.0,29.93,SSW,194,4.0,-999.0,88,-99.99,,,-99.99,,2013-01-17 07:52:00,
2013-01-17 03:02:00,27.0,24.0,29.94,SW,223,5.0,-999.0,88,-99.99,,,-99.99,,2013-01-17 08:02:00,
2013-01-17 03:12:00,27.0,24.0,29.94,SW,223,5.0,-999.0,88,-99.99,,,-99.99,,2013-01-17 08:12:00,
2013-01-17 03:22:00,28.0,25.0,29.93,WSW,253,5.0,-999.0,87,-99.99,,,-99.99,,2013-01-17 08:22:00,
2013-01-17 03:32:00,28.0,25.0,29.94,South,184,4.0,-999.0,87,-99.99,,,-99.99,,2013-01-17 08:32:00,
2013-01-17 03:43:00,28.0,25.0,29.94,South,184,4.0,-999.0,87,-99.99,,,-99.99,,2013-01-17 08:43:00,
2013-01-17 03:52:00,28.0,25.0,29.95,WSW,252,5.0,-999.0,87,-99.99,,,-99.99,,2013-01-17 08:52:00,
2013-01-17 04:03:00,28.0,24.0,29.95,SW,221,4.0,-999.0,86,-99.99,,,-99.99,,2013-01-17 09:03:00,
2013-01-17 04:12:00,28.0,24.0,29.95,SW,221,4.0,-999.0,86,-99.99,,,-99.99,,2013-01-17 09:12:00,
2013-01-17 04:22:00,28.0,24.0,29.95,WSW,242,4.0,-999.0,85,-99.99,,,-99.99,,2013-01-17 09:22:00,
2013-01-17 04:33:00,28.0,24.0,29.95,South,182,4.0,-999.0,85,-99.99,,,-99.99,,2013-01-17 09:33:00,
2013-01-17 04:42:00,28.0,24.0,29.95,South,182,4.0,-999.0,85,-99.99,,,-99.99,,2013-01-17 09:42:00,
2013-01-17 04:52:00,28.0,24.0,29.95,WSW,242,4.0,-999.0,85,-99.99,,,-99.99,,2013-01-17 09:52:00,
2013-01-17 05:02:00,28.0,24.0,29.95,SW,229,4.0,-999.0,84,-99.99,,,-99.99,,2013-01-17 10:02:00,
2013-01-17 05:12:00,28.0,24.0,29.95,SW,229,4.0,-999.0,84,-99.99,,,-99.99,,2013-01-17 10:12:00,
2013-01-17 05:22:00,28.0,24.0,29.95,WSW,237,5.0,-999.0,84,-99.99,,,-99.99,,2013-01-17 10:22:00,
2013-01-17 05:32:00,28.0,24.0,29.96,SW,220,5.0,-999.0,83,-99.99,,,-99.99,,2013-01-17 10:32:00,
2013-01-17 05:42:00,28.0,24.0,29.96,SW,220,5.0,-999.0,83,-99.99,,,-99.99,,2013-01-17 10:42:00,
2013-01-17 05:52:00,28.0,23.0,29.96,SW,217,6.0,-999.0,82,-99.99,,,-99.99,,2013-01-17 10:52:00,
2013-01-17 06:03:00,28.0,23.0,29.96,WSW,242,5.0,-999.0,82,-99.99,,,-99.99,,2013-01-17 11:03:00,
2013-01-17 06:12:00,28.0,23.0,29.96,WSW,242,5.0,-999.0,82,-99.99,,,-99.99,,2013-01-17 11:12:00,
2013-01-17 06:22:00,28.0,23.0,29.98,WSW,252,6.0,-999.0,82,-99.99,,,-99.99,,2013-01-17 11:22:00,
2013-01-17 06:33:00,28.0,23.0,29.98,WSW,251,6.0,-999.0,82,-99.99,,,-99.99,,2013-01-17 11:33:00,
2013-01-17 06:43:00,28.0,23.0,29.98,WSW,251,6.0,-999.0,82,-99.99,,,-99.99,,2013-01-17 11:43:00,
2013-01-17 06:52:00,28.0,23.0,29.98,SW,232,5.0,-999.0,82,-99.99,,,-99.99,,2013-01-17 11:52:00,
2013-01-17 07:03:00,28.0,23.0,29.99,SW,223,5.0,-999.0,82,-99.99,,,-99.99,,2013-01-17 12:03:00,
2013-01-17 07:12:00,28.0,23.0,29.99,SW,223,5.0,-999.0,82,-99.99,,,-99.99,,2013-01-17 12:12:00,
2013-01-17 07:23:00,28.0,23.0,30.00,WSW,241,8.0,-999.0,82,-99.99,,,-99.99,,2013-01-17 12:23:00,
2013-01-17 07:33:00,28.0,23.0,30.00,WSW,241,8.0,-999.0,82,-99.99,,,-99.99,,2013-01-17 12:33:00,
2013-01-17 07:43:00,28.0,23.0,30.00,WSW,241,8.0,-999.0,82,-99.99,,,-99.99,,2013-01-17 12:43:00,
2013-01-17 07:52:00,28.0,24.0,30.01,SW,219,6.0,-999.0,83,-99.99,,,-99.99,,2013-01-17 12:52:00,
2013-01-17 08:03:00,28.0,24.0,30.01,SSW,202,9.0,-999.0,84,-99.99,,,-99.99,,2013-01-17 13:03:00,
2013-01-17 08:12:00,28.0,24.0,30.01,SSW,202,9.0,-999.0,84,-99.99,,,-99.99,,2013-01-17 13:12:00,
2013-01-17 08:23:00,28.0,24.0,30.02,West,278,7.0,-999.0,84,-99.99,,,-99.99,,2013-01-17 13:23:00,
2013-01-17 08:33:00,28.0,24.0,30.04,SW,226,6.0,-999.0,84,-99.99,,,-99.99,,2013-01-17 13:33:00,
2013-01-17 08:43:00,28.0,24.0,30.04,SW,226,6.0,-999.0,84,-99.99,,,-99.99,,2013-01-17 13:43:00,
2013-01-17 08:53:00,28.0,24.0,30.04,SW,219,4.0,-999.0,85,-99.99,,,-99.99,,2013-01-17 13:53:00,
2013-01-17 09:03:00,28.0,24.0,30.04,SW,229,6.0,-999.0,86,-99.99,,,-99.99,,2013-01-17 14:03:00,
2013-01-17 09:12:00,28.0,24.0,30.04,SW,229,6.0,-999.0,86,-99.99,,,-99.99,,2013-01-17 14:12:00,
2013-01-17 09:23:00,28.0,24.0,30.05,WSW,257,6.0,-999.0,85,-99.99,,,-99.99,,2013-01-17 14:23:00,
2013-01-17 09:33:00,29.0,25.0,30.05,WSW,251,7.0,-999.0,85,-99.99,,,-99.99,,2013-01-17 14:33:00,
2013-01-17 09:43:00,29.0,25.0,30.05,WSW,251,7.0,-999.0,85,-99.99,,,-99.99,,2013-01-17 14:43:00,
2013-01-17 09:53:00,29.0,25.0,30.05,West,280,8.0,-999.0,84,-99.99,,,-99.99,,2013-01-17 14:53:00,
2013-01-17 10:03:00,29.0,25.0,30.06,WSW,239,7.0,-999.0,84,-99.99,,,-99.99,,2013-01-17 15:03:00,
2013-01-17 10:12:00,29.0,25.0,30.06,WSW,239,7.0,-999.0,84,-99.99,,,-99.99,,2013-01-17 15:12:00,
2013-01-17 10:23:00,29.0,25.0,30.06,West,281,5.0,-999.0,84,-99.99,,,-99.99,,2013-01-17 15:23:00,
2013-01-17 10:33:00,29.0,25.0,30.06,SW,221,6.0,-999.0,83,-99.99,,,-99.99,,2013-01-17 15:33:00,
2013-01-17 10:43:00,29.0,25.0,30.06,SW,221,6.0,-999.0,83,-99.99,,,-99.99,,2013-01-17 15:43:00,
2013-01-17 10:53:00,30.0,25.0,30.07,SW,221,5.0,-999.0,82,-99.99,,,-99.99,,2013-01-17 15:53:00,
2013-01-17 11:03:00,30.0,25.0,30.07,WSW,249,5.0,-999.0,83,-99.99,,,-99.99,,2013-01-17 16:03:00,
2013-01-17 11:12:00,30.0,25.0,30.07,WSW,249,5.0,-999.0,83,-99.99,,,-99.99,,2013-01-17 16:12:00,
2013-01-17 11:23:00,30.0,25.0,30.09,West,267,7.0,-999.0,83,-99.99,,,-99.99,,2013-01-17 16:23:00,
2013-01-17 11:33:00,29.0,25.0,30.08,West,259,6.0,-999.0,83,-99.99,,,-99.99,,2013-01-17 16:33:00,
2013-01-17 11:43:00,29.0,25.0,30.08,West,259,6.0,-999.0,83,-99.99,,,-99.99,,2013-01-17 16:43:00,
2013-01-17 11:53:00,29.0,25.0,30.08,SW,234,4.0,-999.0,84,-99.99,,,-99.99,,2013-01-17 16:53:00,
2013-01-17 12:03:00,29.0,25.0,30.08,WNW,290,4.0,-999.0,85,-99.99,,,-99.99,,2013-01-17 17:03:00,
2013-01-17 12:13:00,29.0,25.0,30.08,WNW,290,4.0,-999.0,85,-99.99,,,-99.99,,2013-01-17 17:13:00,
2013-01-17 12:23:00,30.0,26.0,30.08,NW,308,2.0,-999.0,85,-99.99,,,-99.99,,2013-01-17 17:23:00,
2013-01-17 12:33:00,30.0,25.0,30.07,West,281,3.0,-999.0,83,-99.99,,,-99.99,,2013-01-17 17:33:00,
2013-01-17 12:43:00,30.0,25.0,30.07,West,281,3.0,-999.0,83,-99.99,,,-99.99,,2013-01-17 17:43:00,
2013-01-17 12:53:00,30.0,25.0,30.07,West,281,3.0,-999.0,83,-99.99,,,-99.99,,2013-01-17 17:53:00,
2013-01-17 13:04:00,29.0,23.0,30.09,NNW,329,4.0,-999.0,78,-99.99,,,-99.99,,2013-01-17 18:04:00,
2013-01-17 13:13:00,29.0,23.0,30.09,NNW,329,4.0,-999.0,78,-99.99,,,-99.99,,2013-01-17 18:13:00,
2013-01-17 13:23:00,27.0,21.0,30.09,WNW,284,7.0,-999.0,77,-99.99,,,-99.99,,2013-01-17 18:23:00,
2013-01-17 13:34:00,27.0,21.0,30.10,SW,229,2.0,-999.0,79,-99.99,,,-99.99,,2013-01-17 18:34:00,
2013-01-17 13:44:00,27.0,21.0,30.10,SW,229,2.0,-999.0,79,-99.99,,,-99.99,,2013-01-17 18:44:00,
2013-01-17 13:53:00,27.0,21.0,30.09,NNW,330,3.0,-999.0,77,-99.99,,,-99.99,,2013-01-17 18:53:00,
2013-01-17 14:03:00,27.0,21.0,30.09,NW,306,3.0,-999.0,77,-99.99,,,-99.99,,2013-01-17 19:03:00,
2013-01-17 14:13:00,27.0,21.0,30.09,NW,306,3.0,-999.0,77,-99.99,,,-99.99,,2013-01-17 19:13:00,
2013-01-17 14:23:00,26.0,20.0,30.10,WSW,254,4.0,-999.0,78,-99.99,,,-99.99,,2013-01-17 19:23:00,
2013-01-17 14:33:00,25.0,19.0,30.10,West,279,5.0,-999.0,77,-99.99,,,-99.99,,2013-01-17 19:33:00,
2013-01-17 14:43:00,25.0,19.0,30.10,West,279,5.0,-999.0,77,-99.99,,,-99.99,,2013-01-17 19:43:00,
2013-01-17 14:53:00,25.0,19.0,30.11,WNW,290,3.0,-999.0,76,-99.99,,,-99.99,,2013-01-17 19:53:00,
2013-01-17 15:03:00,24.0,17.0,30.11,WNW,283,3.0,-999.0,74,-99.99,,,-99.99,,2013-01-17 20:03:00,
2013-01-17 15:13:00,24.0,17.0,30.11,WNW,283,3.0,-999.0,74,-99.99,,,-99.99,,2013-01-17 20:13:00,
2013-01-17 15:23:00,24.0,17.0,30.12,WSW,254,3.0,-999.0,73,-99.99,,,-99.99,,2013-01-17 20:23:00,
2013-01-17 15:33:00,24.0,16.0,30.12,NW,306,5.0,-999.0,71,-99.99,,,-99.99,,2013-01-17 20:33:00,
2013-01-17 15:43:00,24.0,16.0,30.12,NW,306,5.0,-999.0,71,-99.99,,,-99.99,,2013-01-17 20:43:00,
2013-01-17 15:53:00,23.0,15.0,30.12,West,261,4.0,-999.0,71,-99.99,,,-99.99,,2013-01-17 20:53:00,
2013-01-17 16:03:00,23.0,14.0,30.12,WSW,253,5.0,-999.0,69,-99.99,,,-99.99,,2013-01-17 21:03:00,
2013-01-17 16:13:00,23.0,14.0,30.12,WSW,253,5.0,-999.0,69,-99.99,,,-99.99,,2013-01-17 21:13:00,
2013-01-17 16:23:00,22.0,13.0,30.12,North,355,2.0,-999.0,69,-99.99,,,-99.99,,2013-01-17 21:23:00,
2013-01-17 16:34:00,22.0,13.0,30.12,West,267,3.0,-999.0,69,-99.99,,,-99.99,,2013-01-17 21:34:00,
2013-01-17 16:43:00,22.0,13.0,30.12,West,267,3.0,-999.0,69,-99.99,,,-99.99,,2013-01-17 21:43:00,
2013-01-17 16:53:00,22.0,13.0,30.12,West,267,3.0,-999.0,69,-99.99,,,-99.99,,2013-01-17 21:53:00,
2013-01-17 17:04:00,21.0,13.0,30.14,SW,219,1.0,-999.0,70,-99.99,,,-99.99,,2013-01-17 22:04:00,
2013-01-17 17:12:00,21.0,13.0,30.14,SW,219,1.0,-999.0,70,-99.99,,,-99.99,,2013-01-17 22:12:00,
2013-01-17 17:23:00,21.0,13.0,30.14,SW,219,1.0,-999.0,70,-99.99,,,-99.99,,2013-01-17 22:23:00,
2013-01-17 17:33:00,20.0,12.0,30.14,WNW,296,0.0,-999.0,71,-99.99,,,-99.99,,2013-01-17 22:33:00,
2013-01-17 17:43:00,20.0,12.0,30.14,WNW,296,0.0,-999.0,71,-99.99,,,-99.99,,2013-01-17 22:43:00,
2013-01-17 17:53:00,20.0,12.0,30.14,WNW,296,0.0,-999.0,72,-99.99,,,-99.99,,2013-01-17 22:53:00,
2013-01-17 18:03:00,20.0,13.0,30.15,WNW,296,0.0,-999.0,73,-99.99,,,-99.99,,2013-01-17 23:03:00,
2013-01-17 18:12:00,20.0,13.0,30.15,WNW,296,0.0,-999.0,73,-99.99,,,-99.99,,2013-01-17 23:12:00,
2013-01-17 18:23:00,20.0,13.0,30.16,WNW,296,0.0,-999.0,73,-99.99,,,-99.99,,2013-01-17 23:23:00,
2013-01-17 18:33:00,20.0,13.0,30.16,WNW,296,0.0,-999.0,74,-99.99,,,-99.99,,2013-01-17 23:33:00,
2013-01-17 18:43:00,20.0,13.0,30.16,WNW,296,0.0,-999.0,74,-99.99,,,-99.99,,2013-01-17 23:43:00,
2013-01-17 18:53:00,19.0,12.0,30.17,WNW,296,1.0,-999.0,75,-99.99,,,-99.99,,2013-01-17 23:53:00,
2013-01-17 19:03:00,19.0,13.0,30.17,WNW,296,1.0,-999.0,77,-99.99,,,-99.99,,2013-01-18 00:03:00,
2013-01-17 19:12:00,19.0,13.0,30.17,WNW,296,1.0,-999.0,77,-99.99,,,-99.99,,2013-01-18 00:12:00,
2013-01-17 19:23:00,19.0,13.0,30.17,North,5,1.0,-999.0,78,-99.99,,,-99.99,,2013-01-18 00:23:00,
2013-01-17 19:33:00,19.0,13.0,30.17,North,5,1.0,-999.0,78,-99.99,,,-99.99,,2013-01-18 00:33:00,
2013-01-17 19:43:00,19.0,13.0,30.17,NNW,347,2.0,-999.0,77,-99.99,,,-99.99,,2013-01-18 00:43:00,
2013-01-17 19:52:00,18.0,11.0,30.17,NNE,22,1.0,-999.0,75,-99.99,,,-99.99,,2013-01-18 00:52:00,
2013-01-17 20:03:00,18.0,11.0,30.16,NNE,26,1.0,-999.0,73,-99.99,,,-99.99,,2013-01-18 01:03:00,
2013-01-17 20:13:00,18.0,11.0,30.16,NNE,26,1.0,-999.0,73,-99.99,,,-99.99,,2013-01-18 01:13:00,
2013-01-17 20:23:00,18.0,11.0,30.15,NNE,20,1.0,-999.0,73,-99.99,,,-99.99,,2013-01-18 01:23:00,
2013-01-17 20:33:00,18.0,11.0,30.15,North,355,2.0,-999.0,72,-99.99,,,-99.99,,2013-01-18 01:33:00,
2013-01-17 20:43:00,18.0,11.0,30.15,North,355,2.0,-999.0,72,-99.99,,,-99.99,,2013-01-18 01:43:00,
2013-01-17 20:52:00,17.0,9.0,30.16,NNW,329,2.0,-999.0,69,-99.99,,,-99.99,,2013-01-18 01:52:00,
2013-01-17 21:03:00,17.0,9.0,30.16,North,355,1.0,-999.0,69,-99.99,,,-99.99,,2013-01-18 02:03:00,
2013-01-17 21:12:00,17.0,9.0,30.16,North,355,1.0,-999.0,69,-99.99,,,-99.99,,2013-01-18 02:12:00,
2013-01-17 21:23:00,17.0,9.0,30.14,North,355,1.0,-999.0,70,-99.99,,,-99.99,,2013-01-18 02:23:00,
2013-01-17 21:33:00,17.0,9.0,30.14,NE,34,1.0,-999.0,69,-99.99,,,-99.99,,2013-01-18 02:33:00,
2013-01-17 21:43:00,17.0,9.0,30.14,NE,34,1.0,-999.0,69,-99.99,,,-99.99,,2013-01-18 02:43:00,
2013-01-17 21:52:00,17.0,9.0,30.14,NE,34,0.0,-999.0,69,-99.99,,,-99.99,,2013-01-18 02:52:00,
2013-01-17 22:03:00,17.0,9.0,30.13,NE,34,0.0,-999.0,69,-99.99,,,-99.99,,2013-01-18 03:03:00,
2013-01-17 22:12:00,17.0,9.0,30.13,NE,34,0.0,-999.0,69,-99.99,,,-99.99,,2013-01-18 03:12:00,
2013-01-17 22:23:00,17.0,9.0,30.14,NE,35,1.0,-999.0,69,-99.99,,,-99.99,,2013-01-18 03:23:00,
2013-01-17 22:33:00,17.0,8.0,30.12,North,10,1.0,-999.0,68,-99.99,,,-99.99,,2013-01-18 03:33:00,
2013-01-17 22:42:00,17.0,8.0,30.12,North,10,1.0,-999.0,68,-99.99,,,-99.99,,2013-01-18 03:42:00,
2013-01-17 22:52:00,17.0,9.0,30.12,NNE,30,0.0,-999.0,69,-99.99,,,-99.99,,2013-01-18 03:52:00,
2013-01-17 23:02:00,17.0,9.0,30.11,NNW,338,0.0,-999.0,69,-99.99,,,-99.99,,2013-01-18 04:02:00,
2013-01-17 23:12:00,17.0,9.0,30.11,NNW,338,0.0,-999.0,69,-99.99,,,-99.99,,2013-01-18 04:12:00,
2013-01-17 23:22:00,17.0,8.0,30.13,NNW,331,0.0,-999.0,68,-99.99,,,-99.99,,2013-01-18 04:22:00,
2013-01-17 23:33:00,16.0,8.0,30.12,NNW,332,1.0,-999.0,69,-99.99,,,-99.99,,2013-01-18 04:33:00,
2013-01-17 23:42:00,16.0,8.0,30.12,NNW,332,1.0,-999.0,69,-99.99,,,-99.99,,2013-01-18 04:42:00,
2013-01-17 23:53:00,16.0,8.0,30.11,NNW,332,1.0,-999.0,70,-99.99,,,-99.99,,2013-01-18 04:53:00,